Torna al catalogo

STARLINK-11433

AttivoComunicazioniVLEO
NORAD 62008·PAYLOAD·🇺🇸 United States

Lanciato Nov 18, 2024 da Vandenberg Space Force Base

Loading…

Prossimi Passaggi (prossime 24 ore)

TLE

AggiornatoSource: CelesTrak SupGP

Epoca: Sep 14, 2026, 22:47 UTC

1 62008C 24213A   26257.94979167 -.00052425  00000+0 -43163-3 0  2578
2 62008  53.1575 188.1037 0001234  94.5534 241.4778 15.69747143    13

Traccia STARLINK-11433 in tempo reale con AllMySat

Download on the App Store